Satellite: AO-51
Catalog number: 28375
Epoch time:      08352.47990606
Element set:     269
Inclination:      098.0581 deg
RA of node:       006.6285 deg
Eccentricity:    0.0084199
Arg of perigee:   317.5243 deg
Mean anomaly:     041.9452 deg
Mean motion:   14.40627916 rev/day
Decay rate:        1.0e-07 rev/day^2
Epoch rev:           23479
Checksum:              323

Satellite: CO-57
Catalog number: 27848
Epoch time:      08353.07753424
Element set:     416
Inclination:      098.7157 deg
RA of node:       357.8603 deg
Eccentricity:    0.0009645
Arg of perigee:   314.4936 deg
Mean anomaly:     045.5431 deg
Mean motion:   14.20418395 rev/day
Decay rate:        8.0e-08 rev/day^2
Epoch rev:           28351
Checksum:              324

Satellite: CO-55
Catalog number: 27844
Epoch time:      08351.92767180
Element set:     466
Inclination:      098.7152 deg
RA of node:       357.6587 deg
Eccentricity:    0.0009361
Arg of perigee:   313.6066 deg
Mean anomaly:     046.4318 deg
Mean motion:   14.20612638 rev/day
Decay rate:        5.1e-07 rev/day^2
Epoch rev:           28338
Checksum:              325

Satellite: SO-50
Catalog number: 27607
Epoch time:      08352.04146013
Element set:     767
Inclination:      064.5576 deg
RA of node:       218.2953 deg
Eccentricity:    0.0082947
Arg of perigee:   243.9614 deg
Mean anomaly:     115.2880 deg
Mean motion:   14.71402077 rev/day
Decay rate:     -.00000000 rev/day^2
Epoch rev:           32187
Checksum:              289

Satellite: NO-44
Catalog number: 26931
Epoch time:      08352.73065530
Element set:      52
Inclination:      067.0499 deg
RA of node:       171.8182 deg
Eccentricity:    0.0006169
Arg of perigee:   258.1543 deg
Mean anomaly:     101.8875 deg
Mean motion:   14.29542365 rev/day
Decay rate:        7.8e-07 rev/day^2
Epoch rev:           37664
Checksum:              319

Satellite: GO-32
Catalog number: 25397
Epoch time:      08352.25997442
Element set:     774
Inclination:      098.3439 deg
RA of node:       018.1903 deg
Eccentricity:    0.0002073
Arg of perigee:   074.0824 deg
Mean anomaly:     286.0585 deg
Mean motion:   14.23152730 rev/day
Decay rate:        3.9e-07 rev/day^2
Epoch rev:           54225
Checksum:              307

Satellite: IO-26
Catalog number: 22826
Epoch time:      08352.71126363
Element set:     848
Inclination:      098.4055 deg
RA of node:       306.9265 deg
Eccentricity:    0.0009831
Arg of perigee:   076.5053 deg
Mean anomaly:     283.7224 deg
Mean motion:   14.29504269 rev/day
Decay rate:       -2.4e-07 rev/day^2
Epoch rev:           79408
Checksum:              320

Satellite: AO-27
Catalog number: 22825
Epoch time:      08352.89923343
Element set:     131
Inclination:      098.4139 deg
RA of node:       306.2792 deg
Eccentricity:    0.0009329
Arg of perigee:   079.3224 deg
Mean anomaly:     280.8995 deg
Mean motion:   14.29254209 rev/day
Decay rate:      .00000000 rev/day^2
Epoch rev:           79401
Checksum:              308

Satellite: LO-19
Catalog number: 20442
Epoch time:      08351.96999887
Element set:     412
Inclination:      098.2211 deg
RA of node:       330.8566 deg
Eccentricity:    0.0011862
Arg of perigee:   355.0323 deg
Mean anomaly:     005.0756 deg
Mean motion:   14.32048450 rev/day
Decay rate:        3.5e-07 rev/day^2
Epoch rev:           98723
Checksum:              306

Satellite: AO-16
Catalog number: 20439
Epoch time:      08353.42045320
Element set:     489
Inclination:      098.2546 deg
RA of node:       324.2950 deg
Eccentricity:    0.0011014
Arg of perigee:   353.6971 deg
Mean anomaly:     006.4064 deg
Mean motion:   14.31810889 rev/day
Decay rate:       -3.0e-07 rev/day^2
Epoch rev:           98728
Checksum:              297

/EX
SB KEPS @ AMSAT  $ORB08353.W
Orbital Elements  08353.WEATHER

HR AMSAT ORBITAL ELEMENTS FOR WEATHER SATELLITES
FROM WA5QGD FORT WORTH,TX December 18, 2008
Send Subscribe/unsubscribe to KEPS at 
http://www.amsat.org/mailman/listinfo/keps
BID: ORB08353.W
TO ALL RADIO AMATEURS BT

Satellite: NOAA-18
Catalog number: 28654
Epoch time:      08353.46744718
Element set:     707
Inclination:      098.8901 deg
RA of node:       292.2946 deg
Eccentricity:    0.0014677
Arg of perigee:   150.4602 deg
Mean anomaly:     209.7405 deg
Mean motion:   14.11218598 rev/day
Decay rate:       3.42e-06 rev/day^2
Epoch rev:           18446
Checksum:              329

Satellite: NOAA-17
Catalog number: 27453
Epoch time:      08353.42642094
Element set:     225
Inclination:      098.5118 deg
RA of node:       052.4984 deg
Eccentricity:    0.0010883
Arg of perigee:   292.4658 deg
Mean anomaly:     067.5384 deg
Mean motion:   14.24026797 rev/day
Decay rate:       1.73e-06 rev/day^2
Epoch rev:           33702
Checksum:              319

Satellite: NOAA-16
Catalog number: 26536
Epoch time:      08353.45095612
Element set:     215
Inclination:      099.1720 deg
RA of node:       346.8032 deg
Eccentricity:    0.0011211
Arg of perigee:   070.0454 deg
Mean anomaly:     290.1910 deg
Mean motion:   14.12505649 rev/day
Decay rate:       -5.9e-07 rev/day^2
Epoch rev:           42478
Checksum:              278

